World > North America > United States > Alabama

Maytown, Alabama Regional Weather

Lat: 33.55N, Lon: 87W
Wx Zone: ALZ024Web Search

If you are on your PC, you can easily pass this page to your phone by scanning the QR Code near the bottom with your camera.

Feedback


°F Click to change Maytown hourly weather to Imperial units.Click to change Maytown hourly weather to Metric units. °C
Maytown Weather Map
UTC Time: 4/16/2021, 15:40
Your Time:

Maytown, AL Regional Weather

Expires:202104161600;;643263
ASUS44 KBMX 161510
RWRAL 
             
ALABAMA REGIONAL WEATHER ROUNDUP
NATIONAL WEATHER SERVICE BIRMINGHAM AL
1000 AM CDT FRI APR 16 2021

NOTE: "FAIR" INDICATES FEW OR NO CLOUDS BELOW 12,000 FEET
WITH NO SIGNIFICANT WEATHER AND/OR OBSTRUCTIONS TO VISIBILITY.

THE REMARK "TC" DENOTES TEMPERATURE IN DEGREES CELSIUS.


ALZ015-024>026-033>036-041>044-161600-
CENTRAL ALABAMA
  
CITY           SKY/WX    TMP DP  RH WIND       PRES   REMARKS
BIRMINGHAM     CLOUDY    56  35  45 E8        30.00S                  
MONTGOMERY     CLOUDY    58  44  60 NE7       29.95F                  
SHELBY CO ARPT CLOUDY    56  36  47 NE5       29.97F                  
MAXWELL AFB    CLOUDY    56  43  60 NE6       29.94F                  
GREENVILLE     PTSUNNY   56  43  61 NE5       29.93F                  
SELMA          FAIR      57  41  54 NE7       29.95F                  
PRATTVILLE     FAIR      55  42  62 CALM      29.95F                  
BESSEMER       FAIR      55  37  50 NE5       29.99F                  
TALLADEGA      FAIR      55  38  52 CALM      29.99R                  
PELL CITY      SUNNY     55  39  54 MISG      30.00S                  
SYLACAUGA      FAIR      53  40  61 NE3       29.98F                  
$$
 

SKY/WX - Weather  TMP - Temperature  DP - Dew Point  RH - Relative Humidity
WIND - Wind Direction/Speed PRES - Barometric Pressure VSB - Visibility
WCI - Wind Chill Index E13G22 Wind - East Wind 13 mph/Gusts of 22 mph